EW4939 Weather Reports


Display with metric or nautical units.
time (UTC)temp
F
wind
direction
speed
MPH
gust
MPH
rain 1hr
in
rain 24hr
in
rain mn
in
humidity
%
barometer
mb
20260906021002 72 106 0.0 0.0 0.00 0.43 0.43 99 1012.9
20260906020501 72 106 0.0 0.0 0.00 0.43 0.43 99 1013.1
20260906020001 72 106 0.0 0.0 0.00 0.43 0.43 99 1013.2
20260906015500 72 106 0.0 0.0 0.00 0.43 0.43 99 1013.2
20260906015000 72 106 0.0 0.0 0.00 0.43 0.43 99 1013.3
20260906014455 72 106 0.0 0.0 0.00 0.43 0.43 99 1013.1
20260906013951 72 106 0.0 0.0 0.00 0.43 0.43 99 1013.3
20260906013447 72 106 0.0 0.0 0.00 0.43 0.43 99 1013.2
20260906012943 72 106 0.0 1.0 0.00 0.43 0.43 99 1013.4
20260906012443 72 107 0.0 1.0 0.00 0.43 0.43 99 1013.2
20260906011942 72 106 0.0 0.0 0.00 0.43 0.43 99 1013.0
20260906011437 72 106 0.0 0.0 0.00 0.43 0.43 99 1012.8
20260906010933 72 105 0.0 0.0 0.00 0.43 0.43 99 1012.7
20260906010428 72 156 0.0 0.0 0.00 0.43 0.43 99 1012.7
20260906005924 72 202 0.0 0.0 0.00 0.43 0.43 99 1012.7
20260906005424 72 165 0.0 0.0 0.00 0.43 0.43 99 1012.7
20260906004922 72 164 0.0 0.0 0.12 0.43 0.43 99 1012.6
20260906004416 71 164 0.0 0.0 0.12 0.43 0.43 99 1012.6
20260906003912 71 154 1.0 1.0 0.00 0.41 0.41 99 1012.4
20260906003407 71 25 0.0 0.0 0.00 0.41 0.41 99 1012.3
20260906002903 71 25 0.0 1.0 0.00 0.41 0.41 99 1012.5
20260906002402 71 24 0.0 0.0 0.00 0.41 0.41 99 1012.4
20260906001857 71 24 0.0 0.0 0.00 0.41 0.41 99 1012.3
20260906001353 71 24 0.0 1.0 0.00 0.41 0.41 99 1012.0
20260906000853 71 34 0.0 0.0 0.00 0.41 0.41 99 1011.7
20260906000355 71 37 0.0 1.0 0.00 0.41 0.41 99 1011.7
20260905235849 71 36 0.0 0.0 0.00 0.41 0.41 99 1011.7
20260905235343 71 169 0.0 0.0 0.00 0.41 0.41 99 1011.7
20260905234838 71 169 0.0 1.0 0.00 0.41 0.41 99 1012.0
20260905234333 71 170 0.0 1.0 0.00 0.41 0.41 98 1012.2
20260905233829 71 171 1.0 1.0 0.00 0.41 0.41 98 1012.2
20260905233323 70 184 0.0 0.0 0.05 0.41 0.41 97 1012.0
20260905232822 70 196 0.0 1.0 0.78 0.41 0.41 95 1012.1
20260905232319 71 181 2.0 7.0 1.91 0.40 0.40 95 1012.0
20260905231814 73 336 11.0 24.0 0.97 0.23 0.23 93 1013.2
20260905231309 80 36 5.0 9.0 0.00 0.07 0.07 85 1012.4
20260905230806 83 10 4.0 4.0 0.00 0.07 0.07 83 1012.4
20260905230303 83 165 0.0 0.0 0.00 0.07 0.07 82 1011.8
20260905225803 83 165 0.0 0.0 0.00 0.07 0.07 80 1011.1
20260905225258 83 165 0.0 1.0 0.00 0.07 0.07 81 1011.1
20260905224758 84 165 0.0 0.0 0.00 0.07 0.07 79 1011.1
20260905224253 84 167 0.0 1.0 0.00 0.07 0.07 80 1011.2
20260905223749 84 166 0.0 0.0 0.00 0.07 0.07 79 1011.6
20260905223246 85 166 0.0 1.0 0.00 0.07 0.07 77 1011.2
20260905222741 86 43 0.0 0.0 0.00 0.07 0.07 73 1011.3
20260905222240 87 43 0.0 1.0 0.00 0.07 0.07 71 1011.6
20260905221736 87 65 0.0 0.0 0.00 0.07 0.07 69 1011.4
20260905221233 88 16 0.0 1.0 0.00 0.07 0.07 70 1011.4
20260905220728 89 352 0.0 1.0 0.00 0.07 0.07 67 1011.6
20260905220224 89 328 1.0 3.0 0.00 0.07 0.07 66 1011.2
20260905215724 90 29 1.0 2.0 0.00 0.07 0.07 65 1011.1
20260905215220 91 337 1.0 1.0 0.00 0.07 0.07 65 1011.1
20260905214715 89 312 1.0 2.0 0.00 0.07 0.07 65 1011.0
20260905214210 89 16 2.0 3.0 0.00 0.07 0.07 65 1011.1
20260905213706 89 337 1.0 2.0 0.00 0.07 0.07 65 1010.9
20260905213202 90 29 0.0 1.0 0.00 0.07 0.07 64 1011.1
20260905212656 90 310 1.0 2.0 0.00 0.07 0.07 63 1011.2
20260905212156 90 313 2.0 2.0 0.00 0.07 0.07 64 1011.4
20260905211650 89 334 1.0 2.0 0.00 0.07 0.07 64 1011.4
20260905211146 90 311 1.0 3.0 0.00 0.07 0.07 62 1011.6
20260905210643 90 251 0.0 2.0 0.00 0.07 0.07 64 1011.4
20260905210142 90 321 1.0 3.0 0.00 0.07 0.07 63 1011.7
20260905205642 89 331 1.0 2.0 0.00 0.07 0.07 63 1011.6
20260905205141 89 43 1.0 2.0 0.00 0.07 0.07 64 1011.6
20260905204641 89 38 1.0 2.0 0.00 0.07 0.07 66 1011.8
20260905204136 89 255 1.0 1.0 0.00 0.07 0.07 63 1011.7
20260905203637 89 27 2.0 2.0 0.00 0.07 0.07 64 1011.9
20260905203132 89 337 0.0 2.0 0.00 0.07 0.07 65 1012.0
20260905202628 88 20 1.0 2.0 0.00 0.07 0.07 68 1012.0
20260905202123 87 16 1.0 2.0 0.00 0.07 0.07 71 1012.0
20260905201618 84 345 0.0 1.0 0.00 0.07 0.07 78 1011.8
20260905201117 82 23 0.0 0.0 0.00 0.07 0.07 85 1012.1
20260905200614 83 23 0.0 0.0 0.00 0.07 0.07 85 1012.1
20260905200109 84 33 0.0 1.0 0.00 0.07 0.07 82 1012.3
20260905195607 85 345 1.0 2.0 0.00 0.07 0.07 77 1012.1
20260905195103 85 351 0.0 3.0 0.07 0.07 0.07 74 1012.3
20260905194602 90 25 0.0 0.0 0.00 0.06 0.06 64 1012.5
20260905194102 91 258 0.0 4.0 0.00 0.06 0.06 59 1012.5
20260905193556 91 314 2.0 2.0 0.00 0.06 0.06 57 1012.4
20260905193052 91 286 0.0 3.0 0.00 0.06 0.06 59 1012.4
20260905192547 91 6 4.0 6.0 0.00 0.06 0.06 58 1012.6
20260905192044 92 288 1.0 2.0 0.00 0.06 0.06 56 1012.7
20260905191542 91 204 2.0 4.0 0.00 0.06 0.06 57 1012.8
20260905191042 91 326 1.0 3.0 0.00 0.06 0.06 60 1012.9
20260905190540 89 291 1.0 3.0 0.00 0.06 0.06 59 1012.8
20260905190039 89 221 1.0 2.0 0.00 0.06 0.06 64 1012.9
20260905185539 89 28 2.0 3.0 0.00 0.06 0.06 61 1013.0
20260905185038 88 32 1.0 2.0 0.00 0.06 0.06 62 1013.1
20260905184539 89 315 1.0 2.0 0.00 0.06 0.06 61 1013.0
20260905184038 89 301 1.0 2.0 0.00 0.06 0.06 62 1013.1
20260905183537 88 310 1.0 2.0 0.00 0.06 0.06 64 1013.2
20260905183033 88 32 2.0 3.0 0.00 0.06 0.06 61 1013.4
20260905182533 88 21 1.0 4.0 0.00 0.06 0.06 62 1013.2
20260905182032 90 351 2.0 2.0 0.00 0.06 0.06 59 1013.5
20260905181528 90 159 0.0 2.0 0.00 0.06 0.06 59 1013.3
20260905181027 90 177 1.0 2.0 0.00 0.06 0.06 59 1013.3
20260905180527 89 159 0.0 1.0 0.00 0.06 0.06 60 1013.1
20260905180023 89 260 0.0 2.0 0.00 0.06 0.06 60 1013.0
20260905175521 88 205 1.0 2.0 0.00 0.06 0.06 60 1013.3
20260905175017 88 218 1.0 6.0 0.00 0.06 0.06 59 1013.2
20260905174513 88 290 1.0 1.0 0.00 0.06 0.06 60 1013.2
20260905174008 87 147 1.0 4.0 0.00 0.06 0.06 60 1013.2
20260905173504 87 164 0.0 3.0 0.00 0.06 0.06 62 1013.2
20260905172959 87 194 2.0 4.0 0.00 0.06 0.06 62 1013.0
20260905172458 87 193 0.0 3.0 0.00 0.06 0.06 62 1013.0
20260905171953 86 204 1.0 3.0 0.00 0.06 0.06 62 1013.0
20260905171450 87 151 1.0 3.0 0.00 0.06 0.06 63 1013.1
20260905170946 86 281 0.0 1.0 0.00 0.06 0.06 64 1013.3
20260905170442 86 200 1.0 2.0 0.00 0.06 0.06 65 1013.4
20260905165941 85 10 0.0 2.0 0.00 0.06 0.06 67 1013.4
20260905165436 85 317 2.0 3.0 0.00 0.06 0.06 67 1013.5
20260905164932 85 330 2.0 2.0 0.00 0.06 0.06 67 1013.7
20260905164426 85 43 0.0 2.0 0.00 0.06 0.06 68 1013.7
20260905163921 85 345 0.0 2.0 0.00 0.06 0.06 67 1013.8
20260905163418 84 174 0.0 3.0 0.00 0.06 0.06 67 1013.8
20260905162914 84 28 2.0 2.0 0.00 0.06 0.06 66 1013.9
20260905162414 84 279 0.0 3.0 0.00 0.06 0.06 67 1013.9
20260905161909 83 199 2.0 6.0 0.00 0.06 0.06 67 1014.1
20260905161408 83 356 0.0 2.0 0.00 0.06 0.06 67 1013.8
20260905160906 83 43 0.0 3.0 0.00 0.06 0.06 68 1013.9
20260905160401 82 310 1.0 2.0 0.00 0.06 0.06 71 1013.9
20260905155855 82 210 0.0 0.0 0.00 0.06 0.06 70 1013.9
20260905155354 82 204 1.0 4.0 0.00 0.06 0.06 69 1014.0
20260905154853 81 16 1.0 3.0 0.00 0.06 0.06 69 1013.9
20260905154349 81 184 0.0 1.0 0.00 0.06 0.06 72 1013.9
20260905153844 80 286 0.0 1.0 0.00 0.06 0.06 71 1013.9
20260905153341 80 293 1.0 1.0 0.00 0.06 0.06 72 1014.1
20260905152840 80 209 1.0 4.0 0.00 0.06 0.06 72 1013.8
20260905152340 80 184 3.0 7.0 0.00 0.06 0.06 74 1013.7
20260905151835 79 199 1.0 2.0 0.00 0.06 0.06 73 1013.8
20260905151331 79 180 2.0 3.0 0.00 0.06 0.06 74 1013.6
20260905150830 79 187 2.0 4.0 0.00 0.06 0.06 74 1013.6
20260905150325 78 203 2.0 4.0 0.00 0.06 0.06 75 1013.8
20260905145822 78 226 0.0 2.0 0.00 0.06 0.06 75 1014.0
20260905145322 77 151 2.0 2.0 0.00 0.06 0.06 77 1014.0
20260905144821 77 197 1.0 3.0 0.00 0.06 0.06 76 1013.8
20260905144317 77 165 3.0 3.0 0.00 0.06 0.06 77 1014.0
20260905143816 77 256 1.0 2.0 0.00 0.06 0.06 77 1013.8
20260905143310 76 201 0.0 3.0 0.00 0.06 0.06 77 1014.0
20260905142809 76 145 1.0 2.0 0.00 0.06 0.06 80 1013.8
20260905142305 76 166 3.0 4.0 0.00 0.06 0.06 80 1013.9
20260905141800 75 200 3.0 3.0 0.00 0.06 0.06 80 1013.8
20260905141255 75 163 1.0 3.0 0.00 0.06 0.06 81 1013.9
20260905140751 75 187 1.0 2.0 0.00 0.06 0.06 82 1014.1
20260905140250 74 175 3.0 3.0 0.00 0.06 0.06 82 1014.3
20260905135749 74 148 0.0 3.0 0.00 0.06 0.06 84 1014.5
20260905135245 74 170 1.0 2.0 0.00 0.06 0.06 85 1014.7
20260905134745 75 145 1.0 1.0 0.00 0.06 0.06 84 1014.7
20260905134245 74 187 1.0 6.0 0.00 0.06 0.06 84 1014.9
20260905133739 74 192 1.0 3.0 0.00 0.06 0.06 85 1015.3
20260905133235 74 184 1.0 1.0 0.00 0.06 0.06 87 1015.4
20260905132733 73 153 0.0 1.0 0.00 0.06 0.06 87 1015.3
20260905132229 72 195 0.0 2.0 0.00 0.06 0.06 88 1015.4
20260905131724 71 169 0.0 1.0 0.00 0.06 0.06 90 1015.5
20260905131220 71 205 1.0 1.0 0.00 0.06 0.06 92 1015.4
20260905130720 71 169 1.0 2.0 0.00 0.06 0.06 93 1015.5
20260905130219 70 269 0.0 0.0 0.00 0.06 0.06 94 1015.4
20260905125714 70 227 0.0 0.0 0.00 0.06 0.06 94 1015.2
20260905125209 70 355 0.0 1.0 0.00 0.06 0.06 94 1015.3
20260905124706 69 21 1.0 1.0 0.00 0.06 0.06 93 1015.2
20260905124202 69 38 0.0 0.0 0.00 0.06 0.06 96 1015.2
20260905123702 69 241 0.0 0.0 0.00 0.06 0.06 96 1015.1
20260905123159 68 341 0.0 1.0 0.00 0.06 0.06 98 1015.1
20260905122658 68 11 0.0 0.0 0.00 0.06 0.06 98 1015.3
20260905122153 68 11 0.0 0.0 0.00 0.06 0.06 98 1015.2
20260905121648 68 11 0.0 0.0 0.00 0.06 0.06 98 1015.5
20260905121144 68 11 0.0 0.0 0.00 0.06 0.06 98 1015.3
20260905120642 68 11 0.0 1.0 0.00 0.06 0.06 98 1015.4
20260905120138 68 11 0.0 0.0 0.00 0.06 0.06 98 1015.3
20260905115637 68 12 0.0 0.0 0.00 0.06 0.06 98 1015.1
20260905115133 68 12 0.0 0.0 0.00 0.06 0.06 98 1015.4
20260905114632 68 3 1.0 1.0 0.00 0.06 0.06 97 1015.4
20260905114131 68 21 0.0 1.0 0.00 0.06 0.06 96 1015.7
20260905113625 68 22 0.0 1.0 0.00 0.06 0.06 96 1015.7
20260905113122 68 22 1.0 2.0 0.00 0.06 0.06 96 1015.5
20260905112621 68 2 1.0 2.0 0.00 0.06 0.06 97 1015.2
20260905112117 68 35 0.0 1.0 0.00 0.06 0.06 97 1015.4
20260905111612 68 26 0.0 0.0 0.00 0.06 0.06 97 1015.5
20260905111111 68 27 0.0 1.0 0.00 0.06 0.06 98 1015.4
20260905110610 68 19 0.0 2.0 0.00 0.06 0.06 97 1015.5
20260905110106 68 28 0.0 2.0 0.05 0.06 0.06 97 1015.8
20260905105600 68 128 0.0 1.0 0.24 0.06 0.06 96 1015.8
20260905105059 69 1 0.0 3.0 0.31 0.05 0.05 94 1016.1
20260905104555 69 351 0.0 1.0 0.07 0.01 0.01 93 1016.2
20260905104055 69 25 1.0 6.0 0.00 0.00 0.00 92 1016.1
20260905103550 70 39 1.0 2.0 0.00 0.00 0.00 92 1015.7
20260905103046 70 42 0.0 6.0 0.00 0.00 0.00 90 1015.7
20260905102542 70 5 2.0 4.0 0.00 0.00 0.00 90 1015.4
20260905102038 71 22 4.0 7.0 0.00 0.00 0.00 89 1015.7
20260905101536 71 2 4.0 15.0 0.00 0.00 0.00 89 1016.1
20260905101035 71 17 8.0 14.0 0.00 0.00 0.00 89 1016.1
20260905100532 71 27 4.0 10.0 0.00 0.00 0.00 99 1015.7
20260905100031 72 344 4.0 17.0 0.00 0.00 0.00 99 1015.6
20260905095526 73 31 4.0 8.0 0.00 0.00 0.00 99 1015.0
20260905095021 73 166 0.0 0.0 0.00 0.00 0.00 99 1013.7
20260905094516 73 166 0.0 0.0 0.00 0.00 0.00 99 1013.6
20260905094015 72 166 0.0 0.0 0.00 0.00 0.00 99 1013.4
20260905093510 73 166 0.0 0.0 0.00 0.00 0.00 99 1013.3
20260905093006 73 166 0.0 0.0 0.00 0.00 0.00 99 1013.4
20260905092501 73 166 0.0 0.0 0.00 0.00 0.00 99 1013.3
20260905091956 73 166 0.0 0.0 0.00 0.00 0.00 99 1013.2
20260905091456 73 166 0.0 0.0 0.00 0.00 0.00 99 1013.3
20260905090956 73 166 0.0 0.0 0.00 0.00 0.00 99 1013.2
20260905090451 73 166 0.0 0.0 0.00 0.00 0.00 99 1013.6
20260905085950 73 166 0.0 0.0 0.00 0.00 0.00 99 1013.2
20260905085449 73 166 0.0 0.0 0.00 0.00 0.00 99 1013.2
20260905084945 73 166 0.0 0.0 0.00 0.00 0.00 99 1013.3
20260905084445 73 166 0.0 0.0 0.00 0.00 0.00 99 1013.3
20260905083939 73 166 0.0 0.0 0.00 0.00 0.00 99 1013.1
20260905083435 73 166 0.0 0.0 0.00 0.00 0.00 99 1013.4
20260905082931 73 166 0.0 0.0 0.00 0.00 0.00 99 1013.5
20260905082427 73 166 0.0 0.0 0.00 0.00 0.00 99 1013.4
20260905081922 73 166 0.0 0.0 0.00 0.00 0.00 99 1013.5
20260905081417 73 166 0.0 0.0 0.00 0.00 0.00 99 1013.6
20260905080915 73 166 0.0 0.0 0.00 0.00 0.00 99 1013.4
20260905080415 73 166 0.0 0.0 0.00 0.00 0.00 99 1013.4
20260905075914 73 166 0.0 0.0 0.00 0.00 0.00 99 1013.4
20260905075409 73 166 0.0 0.0 0.00 0.00 0.00 99 1013.2
20260905074908 73 166 0.0 0.0 0.00 0.00 0.00 99 1013.1
20260905074404 73 166 0.0 0.0 0.00 0.00 0.00 99 1013.1
20260905073900 73 166 0.0 0.0 0.00 0.00 0.00 99 1012.9
20260905073354 73 166 0.0 0.0 0.00 0.00 0.00 99 1012.7
20260905072850 73 166 0.0 0.0 0.00 0.00 0.00 99 1012.5
20260905072344 73 166 0.0 0.0 0.00 0.00 0.00 99 1012.7
20260905071841 73 166 0.0 0.0 0.00 0.00 0.00 99 1012.7
20260905071338 73 166 0.0 0.0 0.00 0.00 0.00 99 1012.9
20260905070837 73 166 0.0 0.0 0.00 0.00 0.00 99 1012.8
20260905070334 73 166 0.0 0.0 0.00 0.00 0.00 99 1012.6
20260905065832 73 166 0.0 0.0 0.00 0.00 0.00 99 1012.8
20260905065331 73 166 0.0 0.0 0.00 0.00 0.00 99 1013.0
20260905064826 73 166 0.0 0.0 0.00 0.00 0.00 99 1013.1
20260905064322 73 166 0.0 0.0 0.00 0.00 0.00 99 1013.1
20260905063820 73 166 0.0 0.0 0.00 0.00 0.00 99 1013.4
20260905063317 73 166 0.0 0.0 0.00 0.00 0.00 99 1013.1
20260905062813 73 166 0.0 1.0 0.00 0.00 0.00 99 1013.3
20260905062313 73 166 0.0 0.0 0.00 0.00 0.00 99 1013.5
20260905061808 73 166 0.0 0.0 0.00 0.00 0.00 99 1013.6
20260905061308 73 166 0.0 0.0 0.00 0.00 0.00 99 1013.5
20260905060802 73 166 0.0 0.0 0.00 0.00 0.00 99 1013.6
20260905060259 73 166 0.0 0.0 0.00 0.00 0.00 99 1013.7
20260905055757 73 166 0.0 0.0 0.00 0.00 0.00 99 1013.7
20260905055252 73 166 1.0 1.0 0.00 0.00 0.00 99 1013.8
20260905054747 73 166 0.0 0.0 0.00 0.00 0.00 99 1013.8
20260905054244 73 166 0.0 0.0 0.00 0.00 0.00 99 1013.9
20260905053743 73 166 0.0 0.0 0.00 0.00 0.00 99 1013.8
20260905053238 73 166 0.0 0.0 0.00 0.00 0.00 99 1013.9
20260905052738 74 166 0.0 1.0 0.00 0.00 0.00 99 1013.9
20260905052233 74 166 0.0 0.0 0.00 0.00 0.00 99 1014.0
20260905051732 74 166 0.0 0.0 0.00 0.00 0.00 99 1014.2
20260905051229 74 166 0.0 0.0 0.00 0.00 0.00 99 1014.1
20260905050725 74 166 0.0 0.0 0.00 0.00 0.00 99 1014.1
20260905050222 74 166 0.0 0.0 0.00 0.00 0.00 99 1014.3
20260905045721 74 166 0.0 0.0 0.00 0.00 0.00 99 1014.4
20260905045217 74 166 0.0 0.0 0.00 0.00 0.00 99 1014.4
20260905044712 74 166 0.0 0.0 0.00 0.00 0.00 99 1014.3
20260905044207 74 166 0.0 0.0 0.00 0.00 0.00 99 1014.2
20260905043705 74 166 0.0 0.0 0.00 0.00 0.00 99 1014.2
20260905043200 74 166 0.0 0.0 0.00 0.00 0.00 99 1014.3
20260905042655 74 166 0.0 1.0 0.00 0.00 0.00 99 1014.3
20260905042154 74 166 0.0 0.0 0.00 0.00 0.00 99 1014.4
20260905041650 74 166 0.0 0.0 0.00 0.00 0.00 99 1014.4
20260905041145 74 166 0.0 0.0 0.00 0.00 0.00 99 1014.5
20260905040640 74 166 0.0 0.0 0.00 0.00 0.00 99 1014.6
20260905040139 74 166 0.0 0.0 0.00 0.26 0.26 99 1014.4
20260905035634 74 166 0.0 0.0 0.00 0.26 0.26 99 1014.4
20260905035131 74 166 0.0 0.0 0.00 0.26 0.26 99 1014.4
20260905034627 74 166 0.0 0.0 0.00 0.26 0.26 99 1014.6
20260905034126 74 166 1.0 1.0 0.00 0.26 0.26 99 1014.4
20260905033625 74 166 0.0 0.0 0.00 0.26 0.26 99 1014.6
20260905033122 74 166 0.0 0.0 0.00 0.26 0.26 99 1014.5
20260905032621 74 166 0.0 0.0 0.00 0.26 0.26 99 1014.4
20260905032121 74 166 0.0 0.0 0.00 0.26 0.26 99 1014.4
20260905031617 74 166 0.0 0.0 0.00 0.26 0.26 99 1014.3
20260905031117 74 166 0.0 0.0 0.00 0.26 0.26 99 1014.7
20260905030612 74 166 0.0 0.0 0.00 0.26 0.26 99 1014.4
20260905030108 74 166 0.0 0.0 0.00 0.26 0.26 99 1014.6
20260905025602 74 166 0.0 0.0 0.00 0.26 0.26 99 1014.4
20260905025058 74 166 0.0 0.0 0.00 0.26 0.26 99 1014.3
20260905024554 74 166 0.0 0.0 0.00 0.26 0.26 99 1014.4
20260905024049 74 166 0.0 0.0 0.00 0.26 0.26 99 1014.2
20260905023544 74 166 0.0 1.0 0.00 0.26 0.26 99 1014.3
20260905023044 74 154 1.0 1.0 0.00 0.26 0.26 99 1014.3
20260905022543 74 111 0.0 0.0 0.00 0.26 0.26 99 1014.4
20260905022039 74 111 0.0 0.0 0.00 0.26 0.26 99 1014.3
20260905021538 74 111 0.0 0.0 0.00 0.26 0.26 99 1014.3